Lydd, United Kingdom

12:46 PM GMT on November 18, 2017 (GMT +0000)
Lydd

Weather History for EGMD - October, 2012

Change the Weather History Date:

Thursday, October 4, 2012

  Actual Average Record
Temperature  
Mean Temperature 54 °F -  
Max Temperature 59 °F - - ()
Min Temperature 48 °F - - ()
Degree Days  
Heating Degree Days 12    
Growing Degree Days 4 (Base 50)    
Moisture  
Dew Point 47 °F    
Average Humidity 70    
Maximum Humidity 94    
Minimum Humidity 55    
Precipitation  
Precipitation 0.00 in - - ()
Sea Level Pressure  
Sea Level Pressure 29.84 in    
Wind  
Wind Speed 13 mph ()    
Max Wind Speed 23 mph    
Max Gust Speed -    
Visibility 6.2 miles    
Events      
T = Trace of Precipitation, MM = Missing Value Source: Averaged Metar Reports

Daily Weather History Graph

Daily Weather History Graph

Search for Another Location

Airport or City:

Trip Planner

Search our weather history database for the weather conditions in past years. The results will help you decide how hot, cold, wet, or windy it might be!

Date:

Astronomy

Oct. 04, 2012 Rise Set
Actual Time 7:01 AM BST 6:26 PM BST
Civil Twilight 6:29 AM BST 6:59 PM BST
Nautical Twilight 5:50 AM BST 7:37 PM BST
Astronomical Twilight 5:11 AM BST 8:16 PM BST
Moon 8:21 PM BST (10/4) 11:35 AM BST (10/4)
Length of Visible Light 12h 30m
Length of Day
11h 24m
Waning Gibbous, 83% of the Moon is Illuminated
Oct 4
Waning Gibbous
Oct 8
Last Quarter
Oct 15
New
Oct 22
First Quarter
Oct 29
Full

Hourly Weather History & Observations

Time (BST) Temp. Dew Point Humidity Pressure Visibility Wind Dir Wind Speed Gust Speed Precip Events Conditions
8:20 AM 48.2 °F 46.4 °F 93% 29.74 in - WNW 8.1 mph - N/A   Clear
8:50 AM 50.0 °F 48.2 °F 94% 29.74 in - West 9.2 mph - N/A   Clear
9:50 AM 53.6 °F 48.2 °F 82% 29.77 in - West 11.5 mph - N/A   Clear
10:20 AM 53.6 °F 48.2 °F 82% 29.80 in - West 11.5 mph - N/A   Clear
10:50 AM 55.4 °F 48.2 °F 77% 29.80 in 6.2 mi West 12.7 mph - N/A   Partly Cloudy
11:20 AM 55.4 °F 48.2 °F 77% 29.80 in 6.2 mi WSW 18.4 mph - N/A   Partly Cloudy
11:50 AM 57.2 °F 46.4 °F 67% 29.83 in 6.2 mi WSW 16.1 mph - N/A   Partly Cloudy
12:20 PM 57.2 °F 46.4 °F 67% 29.83 in 6.2 mi WSW 17.3 mph - N/A   Partly Cloudy
12:50 PM 57.2 °F 44.6 °F 63% 29.83 in 6.2 mi WSW 20.7 mph - N/A   Partly Cloudy
1:20 PM 59.0 °F 46.4 °F 63% 29.86 in 6.2 mi WSW 19.6 mph - N/A   Partly Cloudy
1:50 PM 59.0 °F 44.6 °F 59% 29.86 in 6.2 mi WSW 23.0 mph - N/A   Partly Cloudy
2:20 PM 59.0 °F 42.8 °F 55% 29.86 in 6.2 mi WSW 17.3 mph - N/A   Partly Cloudy
2:50 PM 59.0 °F 46.4 °F 63% 29.86 in 6.2 mi WSW 17.3 mph - N/A   Partly Cloudy
3:20 PM 59.0 °F 46.4 °F 63% 29.86 in 6.2 mi WSW 16.1 mph - N/A   Partly Cloudy
3:50 PM 57.2 °F 46.4 °F 67% 29.89 in 6.2 mi WSW 20.7 mph - N/A   Partly Cloudy
4:20 PM 59.0 °F 48.2 °F 67% 29.89 in 6.2 mi WSW 18.4 mph - N/A   Partly Cloudy
4:50 PM 59.0 °F 48.2 °F 67% 29.89 in 6.2 mi WSW 18.4 mph - N/A   Partly Cloudy
5:20 PM 57.2 °F 46.4 °F 67% 29.89 in 6.2 mi WSW 17.3 mph - N/A   Partly Cloudy
5:50 PM 57.2 °F 46.4 °F 67% 29.89 in 6.2 mi WSW 17.3 mph - N/A   Partly Cloudy
6:20 PM 57.2 °F 46.4 °F 67% 29.89 in 6.2 mi SW 15.0 mph - N/A   Partly Cloudy
6:50 PM 55.4 °F 46.4 °F 72% 29.89 in 6.2 mi SW 17.3 mph - N/A   Partly Cloudy